FW7500 Weather Reports


Display with metric or nautical units.
time (UTC)temp
F
wind
direction
speed
MPH
gust
MPH
rain 1hr
in
rain 24hr
in
rain mn
in
humidity
%
barometer
mb
20260508134600 58 360 6.0 14.0 0.00 0.00 0.00 54 1016.3
20260508133115 56 360 8.0 15.0 0.00 0.00 0.00 53 1016.3
20260508131554 56 360 8.0 13.0 0.00 0.00 0.00 54 1016.2
20260508130052 55 360 7.0 13.0 0.00 0.00 0.00 54 1016.2
20260508124550 53 360 8.0 13.0 0.00 0.00 0.00 55 1016.1
20260508123100 52 360 7.0 12.0 0.00 0.00 0.00 59 1016.1
20260508121550 50 360 6.0 9.0 0.00 0.00 0.00 61 1016.1
20260508120053 49 360 6.0 10.0 0.00 0.00 0.00 63 1016.0
20260508114551 47 360 4.0 8.0 0.00 0.00 0.00 66 1015.9
20260508113108 46 360 4.0 6.0 0.00 0.00 0.00 67 1015.7
20260508111551 45 360 3.0 5.0 0.00 0.00 0.00 70 1015.6
20260508110055 44 360 2.0 4.0 0.00 0.00 0.00 69 1015.5
20260508104543 45 360 4.0 8.0 0.00 0.00 0.00 68 1015.4
20260508103059 46 217 3.0 7.0 0.00 0.00 0.00 66 1015.5
20260508101600 46 360 3.0 6.0 0.00 0.00 0.00 66 1015.3
20260508100053 45 360 3.0 5.0 0.00 0.00 0.00 67 1015.3
20260508094546 45 360 3.0 5.0 0.00 0.00 0.00 68 1015.3
20260508093049 46 360 3.0 5.0 0.00 0.00 0.00 66 1015.2
20260508091558 46 360 2.0 5.0 0.00 0.00 0.00 65 1015.2
20260508090108 46 360 3.0 4.0 0.00 0.00 0.00 64 1015.1
20260508084553 46 360 2.0 6.0 0.00 0.00 0.00 64 1015.1
20260508083050 46 360 3.0 5.0 0.00 0.00 0.00 65 1015.2
20260508081549 45 360 2.0 3.0 0.00 0.00 0.00 66 1015.0
20260508080048 45 360 3.0 5.0 0.00 0.00 0.00 67 1014.9
20260508074548 46 360 3.0 7.0 0.00 0.00 0.00 66 1015.0
20260508073051 46 360 4.0 6.0 0.00 0.00 0.00 64 1015.0
20260508071600 46 360 2.0 5.0 0.00 0.00 0.00 63 1015.2
20260508070056 47 360 2.0 4.0 0.00 0.00 0.00 62 1015.5
20260508064549 47 360 3.0 5.0 0.00 0.00 0.00 61 1015.6
20260508063049 47 360 3.0 6.0 0.00 0.00 0.00 61 1015.8
20260508061550 47 360 2.0 5.0 0.00 0.00 0.00 61 1015.8
20260508060053 48 360 3.0 6.0 0.00 0.00 0.00 60 1015.9
20260508054548 47 360 4.0 6.0 0.00 0.00 0.00 62 1015.9
20260508053113 46 261 3.0 4.0 0.00 0.00 0.00 64 1015.9
20260508051549 47 360 2.0 3.0 0.00 0.00 0.00 63 1015.8
20260508050049 47 360 1.0 4.0 0.00 0.00 0.00 63 1015.8
20260508044554 47 360 3.0 5.0 0.00 0.00 0.00 63 1015.8
20260508043048 47 360 2.0 3.0 0.00 0.00 0.00 63 1015.8
20260508041611 47 360 1.0 2.0 0.00 0.00 0.00 63 1015.9
20260508040104 47 360 1.0 3.0 0.00 0.00 0.00 64 1015.8
20260508034549 46 360 1.0 2.0 0.00 0.00 0.00 66 1015.8
20260508033050 46 360 2.0 3.0 0.00 0.00 0.00 69 1015.9
20260508031549 45 360 1.0 2.0 0.00 0.00 0.00 72 1015.9
20260508030047 45 0 0.0 0.0 0.00 0.00 0.00 73 1016.0
20260508024603 45 0 0.0 0.0 0.00 0.00 0.00 72 1015.9
20260508023051 45 0 0.0 0.0 0.00 0.00 0.00 71 1015.8
20260508021547 46 0 0.0 0.0 0.00 0.00 0.00 70 1015.8
20260508020049 47 0 0.0 0.0 0.00 0.00 0.00 67 1015.9
20260508014547 48 0 0.0 0.0 0.00 0.00 0.00 63 1015.7
20260508013051 49 0 0.0 0.0 0.00 0.00 0.00 60 1015.5
20260508011555 51 0 0.0 0.0 0.00 0.00 0.00 55 1015.5
20260508010056 53 0 0.0 0.0 0.00 0.00 0.00 49 1015.4
20260508004555 54 0 0.0 0.0 0.00 0.00 0.00 47 1015.3
20260508003105 56 0 0.0 0.0 0.00 0.00 0.00 44 1015.2
20260508001552 57 0 1.0 3.0 0.00 0.00 0.00 44 1015.0
20260508000048 58 304 1.0 4.0 0.00 0.00 0.00 43 1015.0
20260507234545 58 307 3.0 6.0 0.00 0.00 0.00 40 1014.9
20260507233059 59 288 3.0 7.0 0.00 0.00 0.00 40 1014.8
20260507231547 60 360 2.0 6.0 0.00 0.00 0.00 40 1014.8
20260507230045 60 360 1.0 5.0 0.00 0.00 0.00 38 1014.8
20260507224556 60 279 3.0 7.0 0.00 0.00 0.00 38 1014.8
20260507223048 61 1 3.0 5.0 0.00 0.00 0.00 44 1014.7
20260507221551 61 359 1.0 10.0 0.00 0.00 0.00 39 1014.8
20260507220051 61 359 3.0 7.0 0.00 0.00 0.00 38 1014.8
20260507214606 61 12 1.0 9.0 0.00 0.00 0.00 38 1014.8
20260507213100 60 331 6.0 9.0 0.00 0.00 0.00 38 1014.8
20260507211549 61 19 3.0 8.0 0.00 0.00 0.00 38 1014.7
20260507210054 61 11 5.0 9.0 0.00 0.00 0.00 44 1014.6
20260507204547 60 60 6.0 10.0 0.00 0.00 0.00 40 1014.6
20260507203056 60 3 5.0 9.0 0.00 0.00 0.00 40 1014.6
20260507201546 60 1 4.0 8.0 0.00 0.00 0.00 41 1014.6
20260507200050 59 266 4.0 10.0 0.00 0.00 0.00 38 1014.6
20260507194614 60 359 5.0 12.0 0.00 0.00 0.00 40 1014.7
20260507193049 60 344 3.0 12.0 0.00 0.00 0.00 39 1014.8
20260507191549 60 264 3.0 10.0 0.00 0.00 0.00 42 1014.9
20260507190052 59 55 6.0 12.0 0.00 0.00 0.00 44 1015.0
20260507184551 59 24 4.0 9.0 0.00 0.00 0.00 45 1015.0
20260507183049 58 312 4.0 10.0 0.00 0.00 0.00 41 1015.0
20260507181554 57 360 4.0 13.0 0.00 0.00 0.00 42 1015.3
20260507180048 58 1 4.0 11.0 0.00 0.00 0.00 42 1015.3
20260507174557 58 323 5.0 11.0 0.00 0.00 0.00 43 1015.7
20260507173118 57 273 7.0 12.0 0.00 0.00 0.00 39 1015.6
20260507171554 56 360 4.0 13.0 0.00 0.00 0.00 46 1015.9
20260507170058 56 333 5.0 12.0 0.00 0.00 0.00 42 1016.0
20260507164555 55 295 7.0 13.0 0.00 0.00 0.00 43 1016.1
20260507163051 55 278 4.0 11.0 0.00 0.00 0.00 42 1016.3
20260507161602 55 295 7.0 14.0 0.00 0.00 0.00 42 1016.3
20260507160050 56 309 5.0 10.0 0.00 0.00 0.00 51 1016.5
20260507154555 55 300 2.0 8.0 0.00 0.00 0.00 46 1016.3
20260507153059 54 265 6.0 13.0 0.00 0.00 0.00 43 1016.3
20260507151551 54 309 3.0 12.0 0.00 0.00 0.00 45 1016.3
20260507150055 54 16 2.0 7.0 0.00 0.00 0.00 46 1016.2
20260507144551 53 308 3.0 8.0 0.00 0.00 0.00 47 1016.2
20260507143049 53 29 5.0 11.0 0.00 0.00 0.00 51 1016.4
20260507141602 53 15 5.0 11.0 0.00 0.00 0.00 47 1016.4
20260507140045 53 300 3.0 8.0 0.00 0.00 0.00 52 1016.4